Location: Chimay
(50.0486°N, 4.3171°E)
Time: 05:46:18
(UTC+00:00)

MOS 1-B Rocket - Pass Details

Date: 08 August 2020
Orbit: 890 x 1606 km, 99.1° (Epoch: 23 September)

Event Time Altitude Azimuth Distance (km) Brightness Sun altitude
Rises 22:34:59 0° 15° (NNE) 3,639 7.9 -22.2°
Reaches altitude 10° 22:37:28 10° 15° (NNE) 2,639 7.0 -22.3°
Maximum altitude 22:43:14 87° 287° (WNW) 901 3.7 -22.6°
Enters shadow 22:45:14 42° 201° (SSW) 1,246 4.2 -22.7°
